Regional Weather Roundup
Issued by NWS

Home | Current Version | Previous Version | Text Only | Print | Product List | Glossary Off
Versions: 1 2 3 4 5 6 7 8 9 10 11 12 13 14 15 16 17 18 19 20 21 22 23 24 25 26 27 28 29 30 31 32 33 34 35 36 37 38 39 40 41 42 43 44 45 46 47 48 49 50

027
ASUS45 KTFX 220810
RWRMT
MONTANA REGIONAL WEATHER ROUNDUP
NATIONAL WEATHER SERVICE GREAT FALLS MT
100 AM MST MON JAN 22 2018

NOTE: "FAIR" INDICATES FEW OR NO CLOUDS BELOW 12000 FEET WITH NO
SIGNIFICANT WEATHER AND/OR OBSTRUCTIONS TO VISIBILITY.

MTZ001>007-043-220900-
WEST OF THE DIVIDE

CITY           SKY/WX    TMP DP  RH WIND       PRES   REMARKS
KALISPELL      CLOUDY    32  25  75 SW7       29.97S WCI  26
MISSOULA       CLOUDY    33  21  61 E9        30.04S WCI  25
BUTTE          FAIR      10   5  80 SW3       30.03F
MULLAN PASS    LGT SNOW  25  24  96 SW8       29.93R VSB 1   WCI  16
ANACONDA         N/A     27  16  63 S14G26    30.00F WCI  15
DEER LODGE       N/A     27  19  74 CALM      30.02F
EUREKA           N/A     36  25  64 MISG      29.93S
HAMILTON         N/A     34  23  64 S14       30.06R WCI  24
PLAINS           N/A     36  26  67 SE1       30.01
RONAN            N/A     37  27  65 S14       30.01S WCI  29
$$

MTZ008-052>055-220900-
SOUTHWEST MONTANA

CITY           SKY/WX    TMP DP  RH WIND       PRES   REMARKS
BOZEMAN        FAIR       5   3  91 SE8       30.08S WCI  -8
DILLON         CLOUDY    18   9  68 CALM      30.08F
ENNIS          PTCLDY    23  12  63 S22       30.14S WCI   8
W YELLOWSTONE  CLOUDY    18  14  86 S6        30.14F WCI   9
THREE FORKS      N/A     28  16  61 S16       30.06R WCI  16
TWIN BRIDGES     N/A     23  11  60 CALM      30.07F
$$

MTZ009-010-012-014-046-048-049-054-220900-
EAST SLOPES AND CENTRAL MONTANA

CITY           SKY/WX    TMP DP  RH WIND       PRES   REMARKS
CUT BANK       FAIR      32  20  61 SW16      29.83R WCI  21
GREAT FALLS    FAIR      33  13  43 SW18      29.91R WCI  22
MALMSTROM AFB  MOCLDY    34  15  45 SW21G32   29.92R WCI  22
HELENA         MOCLDY    19  14  81 W6        30.03S WCI  11
AUGUSTA        FAIR      31  20  63 SW21G31   29.88S WCI  18
BOWMANS CRNR   FAIR      27  15  61 S24       29.89R WCI  12
CHOTEAU          N/A     34  18  51 S8        29.89R WCI  27
FAIRFIELD      MOCLDY    31  16  53 S24G31    29.87S WCI  17
POWER          MOCLDY    30  17  58 S21       29.88S WCI  17
RAYNESFORD     MOCLDY    37   9  31 SW12G26   29.91F WCI  29
ULM            MOCLDY    33  15  47 S18G24    29.94S WCI  22
WHITE SULPHUR    N/A     23  10  58 S24       29.99S WCI   7
$$

MTZ011-013-016-021-045-047-050-051-220900-
NORTH CENTRAL MONTANA

CITY           SKY/WX    TMP DP  RH WIND       PRES   REMARKS
HAVRE          FAIR      17  13  84 SE5       29.88F
LEWISTOWN      FAIR      19  10  68 SE8       29.91F WCI   9
N BAR RANCH    FAIR      21   9  58 W7        29.94F WCI  13
CHINOOK          N/A     10   9  92 CALM      29.91S
DENTON         MOCLDY    21  14  75 MISG      29.88F
GEYSER         MOCLDY    28  12  51 W10       29.90S WCI  19
GRASS RANGE    MOCLDY    22  12  66 SW12      29.89F WCI  11
STANFORD       MOCLDY    27   9  45 W3        29.90S
WINIFRED       FAIR      32  13  46 SW10      29.90S WCI  23
$$

MTZ017>020-022>027-061-062-220900-
NORTHEAST MONTANA

CITY           SKY/WX    TMP DP  RH WIND       PRES   REMARKS
GLASGOW        FAIR      12   9  87 SE13      29.96F WCI  -3
GLENDIVE       FAIR      11   9  92 SW6       30.00F WCI   1
JORDAN           N/A      1  -3  83 W6        29.97F WCI -10
MALTA          CLEAR      3   0  85 E3        29.96R
SIDNEY         FAIR      11   9  92 SW5       30.02S
WOLF POINT     FAIR       3  -1  83 CALM      30.01F
PLENTYWOOD       N/A     18  16  93 CALM      29.97S
POPLAR           N/A     12   9  85 CALM      30.01S VSB 1/2
SCOBEY           N/A     13   6  73 CALM      29.94F
$$

MTZ028>42-056>058-220900-
SOUTHCENTRAL AND SOUTHEAST MONTANA

CITY           SKY/WX    TMP DP  RH WIND       PRES   REMARKS
BAKER          FAIR       5   3  91 CALM      29.99F
BILLINGS       FAIR      25  18  74 SW13      29.99F WCI  14
LIVINGSTON     FAIR      26  16  65 SW33G47   30.01S HAZE    WCI   9
MILES CITY     FAIR      12  10  92 S8        30.00F WCI   0
BIG TIMBER     CLEAR     27  14  59 W28G41    30.00S WCI  11
EKALAKA          N/A     20  11  68 CALM      29.95F
FORSYTH          N/A     14  12  92 CALM      30.00F
HARLOWTON      FAIR      28  10  47 W16G28    29.94F WCI  17
LAUREL           N/A     23  18  80 W13       30.01F WCI  11
$$

REGIONAL REPORTS...DAKOTAS

CITY           SKY/WX    TMP DP  RH WIND       PRES   REMARKS
WILLISTON      FAIR       9   6  88 CALM      30.01S
MINOT          FAIR      15  12  88 W5        30.00S
DICKINSON      FAIR      17  13  84 W12       29.95F WCI   4
BEACH          FAIR      16  12  86 S3        30.02S
CROSBY         FAIR       9   7  92 S10       29.99S WCI  -6
TIOGA          FAIR       7   7 100 CALM      29.99S
BISMARCK       FOG       18  17  96 SE3       30.03F VSB 1/4
GRAND FORKS    CLOUDY    23  21  92 N6        30.09F WCI  16
FARGO          CLOUDY    25  23  92 NE10      30.03F WCI  15
BUFFALO SD       N/A     18  12  77 W6        29.92S WCI  10
RAPID CITY     FAIR      28  19  69 NW21      29.95F WCI  15
$$

REGIONAL REPORTS...WYOMING/IDAHO/WASHINGTON

CITY           SKY/WX    TMP DP  RH WIND       PRES   REMARKS
GILLETTE       FAIR      20  12  71 W12       29.97F WCI   8
SHERIDAN       FAIR      13   7  77 CALM      29.98F
BUFFALO WY     FAIR      22   4  46 W9        29.97F WCI  12
CODY           FAIR      17  11  77 CALM      30.00F
YELLOWSTONE LA   N/A      0  -4  83 CALM      30.15S
IDAHO FALLS    CLOUDY    24  21  88 N3        30.22F
SALMON         CLOUDY    23  18  81 CALM      30.18S
BOISE          FLURRIES  34  32  92 SE14      30.18F WCI  25
SPOKANE        FAIR      35  34  96 SW14      30.01R WCI  26
$$

REGIONAL REPORTS...ALBERTA

CITY           SKY/WX    TMP DP  RH WIND       PRES   REMARKS
CALGARY        MOCLDY    36  16  44 NW8       29.68  WCI  29
CARDSTON         N/A     34  19  55 W5          N/A
EDMONTON       CLOUDY    19  14  79 E5        29.68S
FORT MCMURRAY  CLOUDY    10   7  85 E8        29.86F WCI  -1
HIGH LEVEL     LGT SNOW   5   1  85 SE10G17   29.79F VSB 1   WCI -10
LETHBRIDGE     PTCLDY    28  19  69 VRB3      29.80R
LLOYDMINSTER   LGT SNOW  21  19  93 SE20G26   29.74F WCI   6
MEDICINE HAT   CLEAR     34  19  55 S20G29    29.77F WCI  22
MILK RIVER       N/A     32  23  69 SW16        N/A  WCI  21
PEACE RIVER    CLOUDY    21  18  86 N5        29.64R
PINCHER CREEK  MOCLDY    32  23  69 W16G26    29.76F WCI  21
WATERTON GATE    N/A     34  21  60 SW30G49     N/A  WCI  20
$$

REGIONAL REPORTS...SASKATCHEWAN

CITY           SKY/WX    TMP DP  RH WIND       PRES   REMARKS
CORONACH         N/A     10   7  85 SE1         N/A
CYPRESS HILLS    N/A     18  12  79 S9          N/A  WCI   6
ESTEVAN        CLEAR      3  -2  78 E5        29.98F
MOOSE JAW        N/A     10   9  92 SW5         N/A
PRINCE ALBERT  FLURRIES  10   7  85 E12       30.04S WCI  -4
REGINA         CLOUDY    10   9  92 E8        29.95F FOG     WCI  -1
ROCKGLEN         N/A     16  12  86 SW9         N/A  WCI   4
SASKATOON      FOG       21  19  93 E12       29.93F VSB 3/4 WCI   9
SWIFT CURRENT  MOCLDY    23  16  74 SW16      29.83F WCI  10
VAL MARIE        N/A      1  -2  85 CALM        N/A
$$




USA.gov is the U.S. government's official web portal to all federal, state and local government web resources and services.